TimeMST,TemperatureF,Dew PointF,Humidity,Sea Level PressureIn,VisibilityMPH,Wind Direction,Wind SpeedMPH,Gust SpeedMPH,PrecipitationIn,Events,Conditions,WindDirDegrees,DateUTC
12:53 AM,48.9,30.9,50,30.07,10.0,NNE,9.2,-,N/A,,Clear,30,2012-12-23 07:53:00
1:53 AM,46.0,33.1,61,30.09,10.0,NNE,4.6,-,N/A,,Clear,30,2012-12-23 08:53:00
2:53 AM,44.1,33.1,65,30.08,10.0,Calm,Calm,-,N/A,,Clear,0,2012-12-23 09:53:00
3:53 AM,43.0,33.1,68,30.09,10.0,North,5.8,-,N/A,,Clear,360,2012-12-23 10:53:00
4:53 AM,42.1,32.0,67,30.05,10.0,Calm,Calm,-,N/A,,Clear,0,2012-12-23 11:53:00
5:53 AM,43.0,32.0,65,30.08,10.0,NE,3.5,-,N/A,,Clear,40,2012-12-23 12:53:00
6:53 AM,43.0,30.9,62,30.09,10.0,Calm,Calm,-,N/A,,Clear,0,2012-12-23 13:53:00
7:53 AM,39.0,32.0,76,30.11,10.0,Calm,Calm,-,N/A,,Clear,0,2012-12-23 14:53:00
8:53 AM,46.9,32.0,56,30.12,10.0,Calm,Calm,-,N/A,,Clear,0,2012-12-23 15:53:00
9:53 AM,52.0,35.1,53,30.14,10.0,NW,3.5,-,N/A,,Clear,320,2012-12-23 16:53:00
10:53 AM,55.0,30.9,40,30.13,10.0,Calm,Calm,-,N/A,,Clear,0,2012-12-23 17:53:00
11:53 AM,57.9,30.9,36,30.10,10.0,Variable,3.5,-,N/A,,Clear,0,2012-12-23 18:53:00
12:53 PM,59.0,30.0,33,30.08,10.0,WSW,4.6,-,N/A,,Clear,250,2012-12-23 19:53:00
1:53 PM,62.1,30.0,30,30.04,10.0,Calm,Calm,-,N/A,,Clear,0,2012-12-23 20:53:00
2:53 PM,64.0,30.9,29,30.01,10.0,Calm,Calm,-,N/A,,Clear,0,2012-12-23 21:53:00
3:53 PM,63.0,30.9,30,30.02,10.0,Calm,Calm,-,N/A,,Clear,0,2012-12-23 22:53:00
4:53 PM,62.1,32.0,32,30.01,10.0,WNW,5.8,-,N/A,,Clear,300,2012-12-23 23:53:00
5:53 PM,57.9,34.0,41,30.00,10.0,Calm,Calm,-,N/A,,Clear,0,2012-12-24 00:53:00
6:53 PM,55.0,34.0,45,30.02,10.0,North,4.6,-,N/A,,Clear,360,2012-12-24 01:53:00
7:53 PM,52.0,36.0,54,30.03,10.0,NE,4.6,-,N/A,,Clear,40,2012-12-24 02:53:00
8:53 PM,51.1,35.1,54,30.01,10.0,Calm,Calm,-,N/A,,Clear,0,2012-12-24 03:53:00
9:53 PM,48.0,36.0,63,30.01,10.0,Calm,Calm,-,N/A,,Clear,0,2012-12-24 04:53:00
10:53 PM,48.9,35.1,59,30.03,10.0,Calm,Calm,-,N/A,,Clear,0,2012-12-24 05:53:00
11:53 PM,48.0,35.1,61,30.02,10.0,Calm,Calm,-,N/A,,Clear,0,2012-12-24 06:53:00